Regional Weather Roundup
Issued by NWS

Home | Current Version | Previous Version | Text Only | Print | Product List | Glossary On
Versions: 1 2 3 4 5 6 7 8 9 10 11 12 13 14 15 16 17 18 19 20 21 22 23 24 25 26 27 28 29 30 31 32 33 34 35 36 37 38 39 40 41 42 43 44 45 46 47 48 49
000
ASUS46 KPQR 290110
RWROR

OREGON REGIONAL WEATHER ROUNDUP
NATIONAL WEATHER SERVICE PORTLAND OR
600 PM PDT THU AUG 28 2014

NOTE: "FAIR" INDICATES FEW OR NO CLOUDS BELOW 12,000 FEET WITH
NO SIGNIFICANT WEATHER AND/OR OBSTRUCTIONS TO VISIBILITY.

ORZ001>013-290200-
NORTHWEST OREGON


CITY           SKY/WX    TMP DP  RH WIND       PRES   REMARKS
ASTORIA        MOSUNNY   68  61  78 W8        30.07F
NEWPORT        FOG       61  59  94 N8        30.11S VSB 1/4
PORTLAND       MOSUNNY   82  57  42 NW10      30.01F
VANCOUVER WA   SUNNY     82  55  39 N7        30.00F
SCAPPOOSE      SUNNY     79  56  45 N12       30.00F
HILLSBORO      MOSUNNY   81  58  45 NE6       30.01F
AURORA         SUNNY     83  53  35 NE7       30.01F
MCMINNVILLE    SUNNY     86  55  34 CALM      30.00F
SALEM          SUNNY     86  53  32 W7        29.99F
CORVALLIS      SUNNY     82  55  39 NW14G20   30.02S
EUGENE         MOSUNNY   88  53  30 NE6       29.99F
$$

ORZ021-028-290200-
SOUTHWEST OREGON


CITY           SKY/WX    TMP DP  RH WIND       PRES   REMARKS
NORTH BEND     SUNNY     64  63  94 N20G26    30.06F
BROOKINGS      CLEAR     64  56  75 S5        30.02F
ROSEBURG       SUNNY     90  51  26 N7        29.96F
SEXTON SUMMIT  SUNNY     76  45  33 VRB5      30.12F
MEDFORD        SUNNY     96  37  12 N9        29.94F HX  91
$$

ORZ009-041-290200-
COLUMBIA GORGE


CITY           SKY/WX    TMP DP  RH WIND       PRES   REMARKS
TROUTDALE      SUNNY     83  53  35 VRB5      29.99F
THE DALLES     SUNNY     86  43  22 NW17G28   29.92F
$$

ORZ029>031-042>050-061>064-290200-
EASTERN OREGON


CITY           SKY/WX    TMP DP  RH WIND       PRES   REMARKS
REDMOND        SUNNY     84  41  21 NW15      30.03S
BEND           CLEAR     82  36  18 NW16G22   30.07S
KLAMATH FALLS  SUNNY     84  38  19 N14       30.09F
LAKEVIEW       SUNNY     84  37  18 W14       30.13
HERMISTON      SUNNY     90  36  14 W7        29.89F
PENDLETON      SUNNY     86  24  10 W18       29.93F
JOHN DAY       PTCLDY    86  43  22 NW12      30.03S
MEACHAM        SUNNY     76  37  24 VRB5      30.08S
LA GRANDE      MOSUNNY   82  43  24 NW14      30.00F
BAKER CITY     PTSUNNY   82  44  26 NW17      30.01S
BURNS          MOSUNNY   86  40  19 W10       30.04F
ROME             N/A     90  38  16 W7        30.01F
ONTARIO        SUNNY     88  52  29 E5        29.89F
$$


USA.gov is the U.S. government's official web portal to all federal, state and local government web resources and services.